User: anonymous   Login
Location: Melbourne
(37.8170°S, 144.9670°E)
Time: 16:38:41
(UTC+11:00)
Language:

Explorer 11/Cluster Stage 4 - Orbit

View from above orbital plane
View from above orbital plane
View from above satellite
View from above satellite

Ground track
Ground track

The orbit data is extracted from the following two-line orbital elements,

1 00107U 61013A   15030.55530227  .00002790  00000-0  36652-3 0  2319
2 00107 028.7900 105.4223 0557982 146.7422 359.0332 14.06119436688580
Epoch (UTC): 30 January 2015 13:19:38
Eccentricity: 0.0557982
inclination: 28.7900°
perigee height: 468 km
apogee height: 1277 km
right ascension of ascending node: 105.4223°
argument of perigee: 146.7422°
revolutions per day: 14.06119436
mean anomaly at epoch: 359.0332°
orbit number at epoch: 68858

The dashed part of the orbit path shows where the satellite is in the earth's shadow,  

DLR